Regional Weather Roundup
Issued by NWS Northern Indiana

Home | Current Version | Previous Version | Graphics & Text | Print | Product List | Glossary On
Versions: 1 2 3 4 5 6 7 8 9 10 11 12 13 14 15 16 17 18 19 20 21 22 23 24 25 26 27 28 29 30 31 32 33 34 35 36 37 38 39 40 41 42 43 44 45 46 47 48 49 50
000
ASUS43 KIWX 032310
RWRIWX

KIWX WEATHER ROUNDUP
NATIONAL WEATHER SERVICE NORTHERN INDIANA
600 PM EST TUE MAR 03 2015

NOTE: "FAIR" INDICATES FEW OR NO CLOUDS BELOW 12,000 FEET WITH NO
SIGNIFICANT WEATHER AND/OR OBSTRUCTIONS TO VISIBILITY.

* THESE STATIONS ARE NOT UNDER NWS QUALITY CONTROL. THEY ALSO MAY NOT
  REPORT WEATHER SUCH AS PRECIPITATION OR FOG.

INZ001>027-040000-
NORTHERN INDIANA

CITY           SKY/WX    TMP DP  RH WIND       PRES   REMARKS
GARY*          CLOUDY    37  28  70 W17G35    29.72R
VALPARAISO     CLOUDY    35  31  85 W17       29.72R WCI  25
MICHIGAN CITY* CLOUDY    34  28  80 W10G18    29.71R WCI  26
LAPORTE*       CLOUDY    37  33  85 W16G25    29.71R
KNOX*            N/A     34  30  86 W16G23    29.72R WCI  23
SOUTH BEND     CLOUDY    36  32  85 W23G31    29.71R
ELKHART*       CLOUDY    36  30  80 W20       29.69R
GOSHEN         CLOUDY    36  32  85 W18       29.68R FOG
MONTICELLO*    CLOUDY    36  34  94 W15G21    29.75R
LOGANSPORT*    CLOUDY    34  34 100 W17G26    29.75R WCI  23
ROCHESTER*     CLOUDY    37  37 100 W13G20    29.72R
WARSAW*        CLOUDY    34  34 100 W18G24    29.69R FOG     WCI  23
ANGOLA*        CLOUDY    36  28  75 W16       29.65R
FORT WAYNE     CLOUDY    37  35  92 W22       29.69R FOG
HUNTINGTON*    CLOUDY    37  33  86 W20G30    29.70R
PERU/GRISSOM   CLOUDY    36  35  94 W22       29.72R
MARION*        CLOUDY    36  36  99 W21       29.74R FOG

$$
INZ028>050-040000-
CENTRAL INDIANA

CITY           SKY/WX    TMP DP  RH WIND       PRES   REMARKS
LAFAYETTE      CLOUDY    37  34  89 W15       29.75R
KOKOMO*        CLOUDY    37  36  93 W24G30    29.74S
MUNCIE*        LGT RAIN  40  38  93 W15       29.75R FOG
INDIANAPOLIS   LGT RAIN  39  37  92 W18G26    29.76R

$$
MIZ043>046-050>051-056>058-064>065-071>073-077>080-040000-
SOUTHWEST LOWER MICHIGAN

CITY           SKY/WX    TMP DP  RH WIND       PRES   REMARKS
BATTLE CREEK   CLOUDY    35  30  82 W17G29    29.62R WCI  25
BENTON HARBOR  CLOUDY    33  31  92 W15       29.68R WCI  23
COLDWATER*     CLOUDY    35  32  90 W20G29    29.63R WCI  24
HILLSDALE*     CLOUDY    36  36  99 W17G29    29.60R
HOLLAND        CLOUDY    34  30  85 W16G24    29.64R WCI  24
GRAND RAPIDS   CLOUDY    33  28  81 W20G28    29.60R WCI  21
KALAMAZOO      CLOUDY    35  29  78 W20G26    29.65R WCI  24
STURGIS*       CLOUDY    36  34  93 W15G25    29.65R
THREE RIVERS*  CLOUDY    36  31  85 W23G29    29.66R

$$
OHZ001>008-015>018-024>025-040000-
NORTHWEST OHIO

CITY           SKY/WX    TMP DP  RH WIND       PRES   REMARKS
WAUSEON*       CLOUDY    36  36 100 W21       29.61F FOG
DEFIANCE       CLOUDY    38  35  89 W9G21     29.66R FOG
FINDLAY        LGT RAIN  40  37  89 SW21      29.65R FOG
TOLEDO EXPRESS CLOUDY    36  34  93 SW23G30   29.62S FOG
TOLEDO METCALF CLOUDY    37  34  89 SW20G25   29.63S FOG
LIMA           LGT RAIN  41  32  70 SW23G31   29.69R

$$
AND FOR LAKE MICHIGAN COASTAL AND OPEN LAKE BUOY OBSERVATIONS

STATION/POSITION TEMP    WIND        PRES    VSBY  WAVE
                 AIR SEA DIR/SP/G                  HT/PER
                 (F)     (DEG/KT/KT) (MB)    (MI)  (FT/S)
CALUMET HARBOR    35     250/  8/ 15 1004.9R
MICHIGAN CITY     34     240/ 14/ 17   N/A
SAINT JOSEPH      34     220/ 10/ 13 1006.1R

$$
&&



USA.gov is the U.S. government's official web portal to all federal, state and local government web resources and services.